AVA148 SBRJ-SBBR

Flight info

Callsign AVA148
Flight time 2h 16m
Altitude 36000
Route MUDKA UM409 ISIPI
Aircraft A320/M-SDE3FGHIRWY/LB1

Departure

Time 2026-04-27 12:10
Airport Santos Dumont Airport (SBRJ)

Arrival

Time 2026-04-27 14:26
Airport Presidente Juscelino Kubitschek International Airport (SBBR)
Time Latitude Longitude Altitude Speed Heading
2026-04-27 12:01 -22.90750 -43.16631 23 ft 0 kts 264°
2026-04-27 12:05 -22.90748 -43.16616 -4 ft 4 kts 266°
2026-04-27 12:05 -22.90748 -43.16587 23 ft 4 kts 273°
2026-04-27 12:05 -22.90750 -43.16558 23 ft 3 kts 281°
2026-04-27 12:06 -22.90751 -43.16553 23 ft 0 kts 281°
2026-04-27 12:07 -22.90725 -43.16558 23 ft 12 kts
2026-04-27 12:07 -22.90638 -43.16550 24 ft 13 kts 356°
2026-04-27 12:08 -22.90514 -43.16549 24 ft 17 kts 25°
2026-04-27 12:08 -22.90498 -43.16483 23 ft 7 kts 85°
2026-04-27 12:08 -22.90494 -43.16430 22 ft 8 kts 85°
2026-04-27 12:08 -22.90474 -43.16341 23 ft 8 kts 75°
2026-04-27 12:09 -22.90501 -43.16318 23 ft 4 kts 168°
2026-04-27 12:09 -22.90505 -43.16318 23 ft 0 kts 176°
2026-04-27 12:09 -22.90585 -43.16312 23 ft 46 kts 176°
2026-04-27 12:09 -22.91196 -43.16273 19 ft 127 kts 177°
2026-04-27 12:10 -22.92268 -43.16217 201 ft 168 kts 178°
2026-04-27 12:10 -22.93406 -43.15966 902 ft 172 kts 150°
2026-04-27 12:10 -22.94146 -43.14950 1609 ft 178 kts 103°
2026-04-27 12:10 -22.94481 -43.13600 1914 ft 199 kts 118°
2026-04-27 12:11 -22.95490 -43.12487 2123 ft 217 kts 144°
2026-04-27 12:11 -22.96764 -43.11452 2312 ft 242 kts 143°
2026-04-27 12:11 -22.98179 -43.10279 2551 ft 268 kts 142°
2026-04-27 12:11 -22.99665 -43.09003 3081 ft 281 kts 142°
2026-04-27 12:12 -23.01064 -43.07484 3886 ft 283 kts 124°
2026-04-27 12:12 -23.01870 -43.05546 4719 ft 284 kts 102°
2026-04-27 12:12 -23.01974 -43.03411 5513 ft 286 kts 81°
2026-04-27 12:12 -23.01403 -43.01378 6302 ft 287 kts 66°
2026-04-27 12:13 -23.00628 -42.99368 7058 ft 290 kts 66°
2026-04-27 12:13 -22.99846 -42.97335 7811 ft 293 kts 66°
2026-04-27 12:13 -22.99061 -42.95280 8554 ft 296 kts 66°
2026-04-27 12:13 -22.98270 -42.93202 9300 ft 299 kts 66°
2026-04-27 12:14 -22.97411 -42.91133 10018 ft 302 kts 58°
2026-04-27 12:14 -22.96176 -42.89282 10546 ft 310 kts 45°
2026-04-27 12:14 -22.94479 -42.87734 10694 ft 329 kts 30°
2026-04-27 12:14 -22.92412 -42.86489 10814 ft 351 kts 26°
2026-04-27 12:15 -22.90196 -42.85190 10943 ft 372 kts 25°
2026-04-27 12:15 -22.87764 -42.84166 11331 ft 378 kts 12°
2026-04-27 12:15 -22.85156 -42.83761 11866 ft 380 kts 359°
2026-04-27 12:15 -22.82520 -42.83988 12424 ft 382 kts 349°
2026-04-27 12:16 -22.79882 -42.84414 13011 ft 385 kts 349°
2026-04-27 12:16 -22.77220 -42.84852 13574 ft 389 kts 349°
2026-04-27 12:16 -22.74535 -42.85284 14090 ft 392 kts 349°
2026-04-27 12:16 -22.71822 -42.85710 14589 ft 396 kts 349°
2026-04-27 12:17 -22.69088 -42.86143 15106 ft 399 kts 349°
2026-04-27 12:17 -22.66332 -42.86594 15576 ft 402 kts 348°
2026-04-27 12:17 -22.63558 -42.87058 16060 ft 405 kts 348°
2026-04-27 12:17 -22.60762 -42.87528 16533 ft 408 kts 348°
2026-04-27 12:18 -22.57943 -42.88003 17021 ft 411 kts 348°
2026-04-27 12:18 -22.55143 -42.88471 17474 ft 414 kts 348°
2026-04-27 12:18 -22.52281 -42.88950 17891 ft 418 kts 348°
2026-04-27 12:18 -22.49392 -42.89431 18338 ft 421 kts 348°
2026-04-27 12:19 -22.46486 -42.89913 18687 ft 424 kts 348°
2026-04-27 12:19 -22.43558 -42.90396 19043 ft 427 kts 348°
2026-04-27 12:19 -22.40617 -42.90882 19435 ft 428 kts 348°
2026-04-27 12:19 -22.37668 -42.91371 19842 ft 430 kts 348°
2026-04-27 12:20 -22.34708 -42.91862 20211 ft 431 kts 348°
2026-04-27 12:20 -22.31735 -42.92351 20571 ft 433 kts 348°
2026-04-27 12:20 -22.28754 -42.92840 20933 ft 435 kts 348°
2026-04-27 12:20 -22.25758 -42.93333 21264 ft 437 kts 348°
2026-04-27 12:21 -22.22745 -42.93827 21612 ft 439 kts 348°
2026-04-27 12:21 -22.19744 -42.94421 21936 ft 438 kts 342°
2026-04-27 12:21 -22.16890 -42.95537 22262 ft 436 kts 332°
2026-04-27 12:21 -22.14281 -42.97177 22572 ft 434 kts 322°
2026-04-27 12:22 -22.11992 -42.99287 22872 ft 433 kts 313°
2026-04-27 12:22 -22.09897 -43.01629 23163 ft 435 kts 312°
2026-04-27 12:22 -22.07793 -43.03979 23434 ft 436 kts 312°
2026-04-27 12:22 -22.05680 -43.06332 23690 ft 438 kts 312°
2026-04-27 12:23 -22.03557 -43.08691 23915 ft 439 kts 313°
2026-04-27 12:23 -22.01428 -43.11052 24140 ft 440 kts 313°
2026-04-27 12:23 -21.99290 -43.13421 24367 ft 441 kts 313°
2026-04-27 12:23 -21.97152 -43.15798 24569 ft 443 kts 313°
2026-04-27 12:24 -21.95005 -43.18187 24769 ft 445 kts 313°
2026-04-27 12:24 -21.92849 -43.20586 24961 ft 446 kts 313°
2026-04-27 12:24 -21.90713 -43.22952 25183 ft 447 kts 313°
2026-04-27 12:24 -21.88511 -43.25384 25402 ft 448 kts 313°
2026-04-27 12:25 -21.86331 -43.27793 25614 ft 450 kts 313°
2026-04-27 12:25 -21.84146 -43.30209 25824 ft 451 kts 313°
2026-04-27 12:25 -21.81960 -43.32630 26023 ft 451 kts 313°
2026-04-27 12:25 -21.79798 -43.35021 26215 ft 452 kts 313°
2026-04-27 12:26 -21.77602 -43.37451 26409 ft 453 kts 313°
2026-04-27 12:26 -21.75376 -43.39860 26601 ft 454 kts 315°
2026-04-27 12:26 -21.73081 -43.42199 26779 ft 455 kts 316°
2026-04-27 12:26 -21.70733 -43.44487 27015 ft 455 kts 317°
2026-04-27 12:27 -21.68371 -43.46737 27270 ft 454 kts 317°
2026-04-27 12:27 -21.66008 -43.48978 27535 ft 452 kts 317°
2026-04-27 12:27 -21.63657 -43.51222 27809 ft 451 kts 317°
2026-04-27 12:27 -21.61325 -43.53475 28069 ft 451 kts 317°
2026-04-27 12:28 -21.59004 -43.55740 28320 ft 450 kts 317°
2026-04-27 12:28 -21.56567 -43.57850 28598 ft 451 kts 324°
2026-04-27 12:28 -21.53884 -43.59596 28898 ft 451 kts 328°
2026-04-27 12:28 -21.51175 -43.61281 29226 ft 449 kts 328°
2026-04-27 12:29 -21.48472 -43.62957 29538 ft 448 kts 328°
2026-04-27 12:29 -21.45773 -43.64627 29847 ft 447 kts 328°
2026-04-27 12:29 -21.43080 -43.66291 30166 ft 446 kts 328°
2026-04-27 12:29 -21.40388 -43.67950 30455 ft 445 kts 328°
2026-04-27 12:30 -21.37705 -43.69604 30714 ft 445 kts 328°
2026-04-27 12:30 -21.35026 -43.71257 30969 ft 444 kts 328°
2026-04-27 12:30 -21.32348 -43.72912 31209 ft 444 kts 328°
2026-04-27 12:30 -21.29672 -43.74566 31447 ft 444 kts 328°
2026-04-27 12:31 -21.27002 -43.76217 31702 ft 443 kts 328°
2026-04-27 12:31 -21.24345 -43.77885 31955 ft 442 kts 327°
2026-04-27 12:31 -21.21748 -43.79564 32209 ft 441 kts 327°
2026-04-27 12:31 -21.19132 -43.81285 32464 ft 441 kts 326°
2026-04-27 12:32 -21.16524 -43.83012 32706 ft 441 kts 326°
2026-04-27 12:32 -21.13918 -43.84736 32943 ft 440 kts 326°
2026-04-27 12:32 -21.11309 -43.86451 33188 ft 440 kts 326°
2026-04-27 12:32 -21.08699 -43.88159 33353 ft 439 kts 326°
2026-04-27 12:33 -21.06089 -43.89858 33604 ft 439 kts 327°
2026-04-27 12:33 -21.03475 -43.91553 33854 ft 439 kts 327°
2026-04-27 12:33 -21.00864 -43.93245 34097 ft 438 kts 327°
2026-04-27 12:33 -20.98260 -43.94935 34329 ft 438 kts 327°
2026-04-27 12:34 -20.95656 -43.96624 34559 ft 437 kts 327°
2026-04-27 12:34 -20.93058 -43.98310 34798 ft 436 kts 327°
2026-04-27 12:34 -20.90465 -43.99992 35028 ft 435 kts 327°
2026-04-27 12:34 -20.87880 -44.01672 35251 ft 435 kts 327°
2026-04-27 12:35 -20.85297 -44.03349 35457 ft 434 kts 327°
2026-04-27 12:35 -20.82719 -44.05020 35667 ft 433 kts 327°
2026-04-27 12:35 -20.80144 -44.06683 35869 ft 432 kts 327°
2026-04-27 12:35 -20.77572 -44.08345 36053 ft 432 kts 327°
2026-04-27 12:36 -20.75000 -44.10012 36115 ft 434 kts 327°
2026-04-27 12:36 -20.69837 -44.13383 36111 ft 436 kts 327°
2026-04-27 12:37 -20.64663 -44.16771 36123 ft 436 kts 327°
2026-04-27 12:37 -20.59478 -44.20140 36122 ft 437 kts 327°
2026-04-27 12:38 -20.55150 -44.22920 36118 ft 437 kts 327°
2026-04-27 12:38 -20.49934 -44.26261 36119 ft 437 kts 327°
2026-04-27 12:39 -20.44711 -44.29600 36120 ft 438 kts 327°
2026-04-27 12:39 -20.39489 -44.32945 36115 ft 438 kts 327°
2026-04-27 12:40 -20.34274 -44.36313 36115 ft 438 kts 327°
2026-04-27 12:40 -20.29055 -44.39681 36111 ft 439 kts 327°
2026-04-27 12:41 -20.23824 -44.43034 36115 ft 439 kts 327°
2026-04-27 12:41 -20.18624 -44.46365 36115 ft 439 kts 327°
2026-04-27 12:42 -20.13394 -44.49731 36117 ft 439 kts 327°
2026-04-27 12:42 -20.08154 -44.53091 36110 ft 440 kts 327°
2026-04-27 12:43 -20.02905 -44.56449 36112 ft 441 kts 327°
2026-04-27 12:43 -19.97650 -44.59811 36115 ft 441 kts 327°
2026-04-27 12:44 -19.92392 -44.63175 36112 ft 441 kts 327°
2026-04-27 12:44 -19.87126 -44.66537 36114 ft 442 kts 327°
2026-04-27 12:45 -19.81856 -44.69899 36115 ft 442 kts 327°
2026-04-27 12:45 -19.76582 -44.73266 36114 ft 443 kts 327°
2026-04-27 12:46 -19.71300 -44.76632 36114 ft 443 kts 327°
2026-04-27 12:46 -19.66013 -44.79999 36117 ft 443 kts 327°
2026-04-27 12:47 -19.60726 -44.83367 36117 ft 443 kts 328°
2026-04-27 12:47 -19.55436 -44.86729 36115 ft 443 kts 328°
2026-04-27 12:48 -19.50143 -44.90087 36112 ft 443 kts 328°
2026-04-27 12:48 -19.44852 -44.93451 36111 ft 444 kts 328°
2026-04-27 12:49 -19.39554 -44.96811 36109 ft 444 kts 328°
2026-04-27 12:49 -19.34252 -45.00172 36110 ft 444 kts 328°
2026-04-27 12:50 -19.28947 -45.03537 36112 ft 444 kts 328°
2026-04-27 12:50 -19.23671 -45.06875 36108 ft 445 kts 328°
2026-04-27 12:51 -19.18359 -45.10237 36104 ft 445 kts 328°
2026-04-27 12:51 -19.13033 -45.13599 36106 ft 446 kts 328°
2026-04-27 12:52 -19.07706 -45.16960 36107 ft 446 kts 328°
2026-04-27 12:52 -19.02374 -45.20325 36109 ft 446 kts 328°
2026-04-27 12:53 -18.94367 -45.25371 36109 ft 447 kts 328°
2026-04-27 12:53 -18.89025 -45.28738 36112 ft 447 kts 328°
2026-04-27 12:54 -18.83679 -45.32102 36110 ft 447 kts 328°
2026-04-27 12:54 -18.78331 -45.35470 36108 ft 448 kts 328°
2026-04-27 12:55 -18.72977 -45.38840 36115 ft 448 kts 328°
2026-04-27 12:55 -18.67622 -45.42202 36115 ft 448 kts 328°
2026-04-27 12:56 -18.62265 -45.45571 36115 ft 448 kts 328°
2026-04-27 12:56 -18.56907 -45.48930 36118 ft 448 kts 328°
2026-04-27 12:57 -18.51546 -45.52279 36116 ft 448 kts 328°
2026-04-27 12:57 -18.46185 -45.55629 36119 ft 448 kts 328°
2026-04-27 12:58 -18.41026 -45.59282 36115 ft 447 kts 322°
2026-04-27 12:58 -18.36038 -45.63198 36117 ft 447 kts 322°
2026-04-27 12:59 -18.31039 -45.67099 36116 ft 447 kts 322°
2026-04-27 12:59 -18.26040 -45.71001 36116 ft 447 kts 322°
2026-04-27 13:00 -18.21075 -45.74876 36112 ft 448 kts 322°
2026-04-27 13:00 -18.16062 -45.78773 36121 ft 448 kts 323°
2026-04-27 13:01 -18.11057 -45.82669 36117 ft 448 kts 322°
2026-04-27 13:01 -18.06048 -45.86560 36115 ft 448 kts 323°
2026-04-27 13:02 -18.01043 -45.90454 36107 ft 448 kts 322°
2026-04-27 13:02 -17.96035 -45.94356 36107 ft 448 kts 323°
2026-04-27 13:03 -17.91018 -45.98255 36110 ft 448 kts 323°
2026-04-27 13:03 -17.86002 -46.02143 36108 ft 448 kts 323°
2026-04-27 13:04 -17.80980 -46.06028 36106 ft 448 kts 323°
2026-04-27 13:04 -17.75994 -46.09891 36101 ft 449 kts 323°
2026-04-27 13:05 -17.70970 -46.13781 36101 ft 449 kts 323°
2026-04-27 13:05 -17.65944 -46.17667 36101 ft 449 kts 323°
2026-04-27 13:06 -17.60917 -46.21555 36094 ft 449 kts 323°
2026-04-27 13:06 -17.55890 -46.25444 36094 ft 449 kts 323°
2026-04-27 13:07 -17.50858 -46.29326 36092 ft 449 kts 323°
2026-04-27 13:07 -17.45822 -46.33204 36093 ft 450 kts 323°
2026-04-27 13:08 -17.40780 -46.37080 36089 ft 450 kts 323°
2026-04-27 13:08 -17.35738 -46.40966 36087 ft 450 kts 323°
2026-04-27 13:09 -17.30698 -46.44856 36087 ft 450 kts 323°
2026-04-27 13:09 -17.25651 -46.48743 36089 ft 451 kts 323°
2026-04-27 13:10 -17.20603 -46.52635 36091 ft 451 kts 323°
2026-04-27 13:10 -17.15544 -46.56510 36089 ft 451 kts 323°
2026-04-27 13:11 -17.10538 -46.60470 36092 ft 451 kts 320°
2026-04-27 13:11 -17.05801 -46.64705 36093 ft 451 kts 318°
2026-04-27 13:12 -17.01100 -46.69048 36091 ft 451 kts 318°
2026-04-27 13:12 -16.96350 -46.73336 36095 ft 452 kts 319°
2026-04-27 13:13 -16.91558 -46.77583 36094 ft 452 kts 319°
2026-04-27 13:13 -16.86753 -46.81823 36098 ft 452 kts 319°
2026-04-27 13:14 -16.81953 -46.86074 36098 ft 452 kts 319°
2026-04-27 13:14 -16.77162 -46.90335 36102 ft 453 kts 319°
2026-04-27 13:15 -16.72366 -46.94597 36102 ft 453 kts 319°
2026-04-27 13:15 -16.67560 -46.98853 36106 ft 453 kts 319°
2026-04-27 13:16 -16.62781 -47.03081 36104 ft 454 kts 319°
2026-04-27 13:16 -16.57970 -47.07344 36110 ft 454 kts 319°
2026-04-27 13:17 -16.53155 -47.11609 36113 ft 454 kts 319°
2026-04-27 13:17 -16.48337 -47.15870 36123 ft 454 kts 319°
2026-04-27 13:18 -16.45384 -47.18471 36134 ft 453 kts 319°
2026-04-27 14:08 -16.44958 -47.18839 36116 ft 452 kts 320°
2026-04-27 14:08 -16.42536 -47.20911 35863 ft 450 kts 320°
2026-04-27 14:09 -16.40164 -47.22988 35123 ft 450 kts 319°
2026-04-27 14:09 -16.37776 -47.25105 34354 ft 452 kts 320°
2026-04-27 14:09 -16.35360 -47.27206 33507 ft 453 kts 321°
2026-04-27 14:09 -16.32912 -47.29280 32611 ft 455 kts 321°
2026-04-27 14:10 -16.30435 -47.31343 31698 ft 457 kts 322°
2026-04-27 14:10 -16.27937 -47.33402 30792 ft 459 kts 322°
2026-04-27 14:10 -16.25430 -47.35469 29812 ft 460 kts 322°
2026-04-27 14:10 -16.22935 -47.37538 28184 ft 460 kts 322°
2026-04-27 14:11 -16.20418 -47.39634 26349 ft 467 kts 322°
2026-04-27 14:11 -16.17866 -47.41765 24463 ft 475 kts 322°
2026-04-27 14:11 -16.15274 -47.43934 22750 ft 478 kts 322°
2026-04-27 14:11 -16.12699 -47.46091 21354 ft 471 kts 322°
2026-04-27 14:12 -16.10169 -47.48209 20096 ft 463 kts 322°
2026-04-27 14:12 -16.07682 -47.50287 18922 ft 455 kts 322°
2026-04-27 14:12 -16.05269 -47.52300 17786 ft 447 kts 322°
2026-04-27 14:12 -16.02895 -47.54272 17107 ft 427 kts 322°
2026-04-27 14:13 -16.00620 -47.56196 16340 ft 419 kts 319°
2026-04-27 14:13 -15.98668 -47.58424 15614 ft 417 kts 307°
2026-04-27 14:13 -15.97200 -47.60997 14901 ft 413 kts 295°
2026-04-27 14:13 -15.96267 -47.63799 14234 ft 408 kts 283°
2026-04-27 14:14 -15.95882 -47.66691 13547 ft 402 kts 271°
2026-04-27 14:14 -15.95979 -47.69577 12901 ft 398 kts 265°
2026-04-27 14:14 -15.96165 -47.72426 12283 ft 393 kts 266°
2026-04-27 14:14 -15.96346 -47.75221 11733 ft 378 kts 266°
2026-04-27 14:15 -15.96512 -47.77841 11589 ft 350 kts 266°
2026-04-27 14:15 -15.96664 -47.80271 11469 ft 325 kts 266°
2026-04-27 14:15 -15.96805 -47.82531 11462 ft 304 kts 266°
2026-04-27 14:15 -15.96940 -47.84663 11351 ft 290 kts 266°
2026-04-27 14:16 -15.97072 -47.86715 11236 ft 280 kts 266°
2026-04-27 14:16 -15.97201 -47.88709 11050 ft 274 kts 266°
2026-04-27 14:16 -15.97324 -47.90639 10823 ft 268 kts 266°
2026-04-27 14:16 -15.97444 -47.92556 10590 ft 264 kts 266°
2026-04-27 14:17 -15.97562 -47.94454 10359 ft 262 kts 266°
2026-04-27 14:17 -15.97680 -47.96337 10134 ft 260 kts 267°
2026-04-27 14:17 -15.97798 -47.98207 10013 ft 260 kts 267°
2026-04-27 14:17 -15.97918 -48.00105 9875 ft 259 kts 267°
2026-04-27 14:18 -15.98036 -48.01950 9738 ft 260 kts 267°
2026-04-27 14:18 -15.98156 -48.03828 9434 ft 261 kts 267°
2026-04-27 14:18 -15.98277 -48.05707 9080 ft 261 kts 267°
2026-04-27 14:18 -15.98396 -48.07590 8713 ft 261 kts 266°
2026-04-27 14:19 -15.98517 -48.09473 8333 ft 262 kts 266°
2026-04-27 14:19 -15.98636 -48.11356 7974 ft 261 kts 266°
2026-04-27 14:19 -15.98753 -48.13229 7639 ft 259 kts 266°
2026-04-27 14:19 -15.98855 -48.15104 7280 ft 259 kts 271°
2026-04-27 14:20 -15.98334 -48.16861 6917 ft 256 kts 307°
2026-04-27 14:20 -15.96943 -48.17986 6401 ft 259 kts 343°
2026-04-27 14:20 -15.95191 -48.18182 6137 ft 250 kts
2026-04-27 14:20 -15.93549 -48.17660 5833 ft 246 kts 30°
2026-04-27 14:21 -15.92251 -48.16544 5515 ft 243 kts 53°
2026-04-27 14:21 -15.91370 -48.15068 5434 ft 240 kts 61°
2026-04-27 14:21 -15.90810 -48.14077 5436 ft 241 kts 61°
2026-04-27 14:21 -15.89954 -48.12584 5450 ft 239 kts 61°
2026-04-27 14:22 -15.89265 -48.11060 5453 ft 227 kts 76°
2026-04-27 14:22 -15.89053 -48.09490 5404 ft 215 kts 87°
2026-04-27 14:22 -15.88959 -48.08005 5368 ft 194 kts 87°
2026-04-27 14:22 -15.88876 -48.06706 5307 ft 166 kts 86°
2026-04-27 14:23 -15.88803 -48.05562 5258 ft 153 kts 87°
2026-04-27 14:23 -15.88734 -48.04461 5226 ft 151 kts 86°
2026-04-27 14:23 -15.88665 -48.03377 5183 ft 151 kts 87°
2026-04-27 14:23 -15.88596 -48.02296 5055 ft 149 kts 86°
2026-04-27 14:24 -15.88528 -48.01225 4905 ft 148 kts 89°
2026-04-27 14:24 -15.88460 -48.00165 4717 ft 146 kts 88°
2026-04-27 14:24 -15.88393 -47.99107 4555 ft 146 kts 88°
2026-04-27 14:24 -15.88324 -47.98047 4294 ft 147 kts 86°
2026-04-27 14:25 -15.88259 -47.96994 4125 ft 146 kts 85°
2026-04-27 14:25 -15.88191 -47.95942 3926 ft 146 kts 86°
2026-04-27 14:25 -15.88125 -47.94902 3725 ft 143 kts 82°
2026-04-27 14:25 -15.88058 -47.93869 3526 ft 143 kts 84°
2026-04-27 14:26 -15.87996 -47.92906 3475 ft 116 kts 86°
2026-04-27 14:26 -15.87955 -47.92257 3474 ft 67 kts 86°
2026-04-27 14:26 -15.87926 -47.91943 3470 ft 28 kts 75°
2026-04-27 14:26 -15.87845 -47.91753 3468 ft 31 kts 56°
2026-04-27 14:27 -15.87724 -47.91571 3469 ft 20 kts 51°
2026-04-27 14:27 -15.87648 -47.91559 3470 ft 2 kts 308°
2026-04-27 14:27 -15.87639 -47.91610 3470 ft 17 kts 281°
2026-04-27 14:27 -15.87545 -47.91653 3470 ft 6 kts 357°
2026-04-27 14:28 -15.87509 -47.91655 3464 ft 6 kts 356°
2026-04-27 14:28 -15.87454 -47.91659 3464 ft 10 kts 356°
2026-04-27 14:28 -15.87368 -47.91665 3464 ft 15 kts 356°
2026-04-27 14:28 -15.87253 -47.91672 3464 ft 17 kts 356°
2026-04-27 14:29 -15.87129 -47.91680 3464 ft 19 kts 356°
2026-04-27 14:29 -15.87059 -47.91738 3465 ft 14 kts 263°
2026-04-27 14:29 -15.87076 -47.91815 3464 ft 8 kts 208°
2026-04-27 14:29 -15.87120 -47.91817 3465 ft 1 kts 176°
2026-04-27 14:30 -15.87121 -47.91817 3465 ft 0 kts 176°